Home   Weather   Ålgård   Past weeks

Flag for Norway Past Weather in Ålgård, Norway — Yesterday and Last 2 Weeks

Now
61 °F

Scattered showers. Partly sunny.


Feels Like: 61 °F
Forecast: 55 / 64 °F
Wind: 5 mph from North

Location: Stavanger / Sola

Current Time: Jul 23, 2017 at 11:03:19 pm

Latest Report: Jul 23, 2017 at 10:20 pm


Visibility: N/A

Pressure: 29.92 "Hg

Humidity: 77%

Dew Point: 54 °F

Location of ÅlgårdLocation

Past Weather in Ålgård — Graph

°F

Ålgård Temperature Yesterday

Maximum temperature yesterday: 68 °F (at 3:20 pm)
Minimum temperature yesterday: 57 °F (at 12:20 am)
Average temperature yesterday: 62 °F

High & Low Weather Summary for the Past Weeks

 TemperatureHumidityPressure
High77 °F (Jul 20, 3:20 pm)100% (Jul 9, 10:50 pm)30.15 "Hg (Jul 9, 10:50 pm)
Low48 °F (Jul 9, 12:50 am)31% (Jul 20, 5:50 pm)29.65 "Hg (Jul 11, 10:20 am)
Average57 °F80%29.92 "Hg
* Reported Jul 8 9:20 pm — Jul 23 9:20 pm, Ålgård. Weather by CustomWeather, © 2017

Note: Actual official high and low records may vary slightly from our data, if they occured in-between our weather recording intervals... More about our weather records

Advertising

Ålgård Weather History for the Previous 24 Hours

Scroll right to see more
 ConditionsComfort  
Time TempWeatherWind HumidityBarometerVisibility
9:20 pm
Sun, Jul 23
63 °FScattered clouds.6 mph73%29.92 "HgN/A
8:20 pm64 °FScattered clouds.6 mph64%29.89 "HgN/A
7:50 pm66 °FScattered clouds.7 mph60%29.89 "HgN/A
7:20 pm66 °FScattered clouds.9 mph60%29.89 "HgN/A
6:50 pm66 °FScattered clouds.6 mph64%29.89 "HgN/A
6:20 pm66 °FScattered clouds.9 mph64%29.89 "HgN/A
5:20 pm70 °FPassing clouds.15 mph57%29.89 "HgN/A
4:50 pm75 °FPassing clouds.12 mph44%29.86 "HgN/A
4:20 pm73 °FPassing clouds.6 mph50%29.86 "HgN/A
3:50 pm73 °FPassing clouds.13 mph50%29.86 "HgN/A
3:20 pm73 °FPassing clouds.14 mph50%29.86 "HgN/A
2:50 pm73 °FPassing clouds.14 mph53%29.89 "HgN/A
2:20 pm73 °FPassing clouds.15 mph47%29.89 "HgN/A
1:50 pm73 °FPassing clouds.15 mph50%29.89 "HgN/A
1:20 pm72 °FPassing clouds.14 mph50%29.92 "HgN/A
12:50 pm70 °FPassing clouds.14 mph53%29.92 "HgN/A
12:20 pm70 °FPassing clouds.15 mph57%29.92 "HgN/A
11:50 am70 °FPassing clouds.12 mph57%29.95 "HgN/A
11:20 am68 °FPassing clouds.10 mph60%29.95 "HgN/A
10:50 am66 °FScattered clouds.8 mph60%29.95 "HgN/A
10:20 am66 °FScattered clouds.10 mph60%29.98 "HgN/A
9:20 am63 °FPartly sunny.6 mph73%29.98 "HgN/A
8:20 am63 °FPartly sunny.6 mph64%29.98 "HgN/A
7:20 am61 °FScattered clouds.No wind72%30.01 "HgN/A
6:20 am59 °FScattered clouds.No wind77%29.98 "HgN/A
5:50 am59 °FBroken clouds.3 mph77%30.01 "HgN/A
5:20 am59 °FScattered clouds.2 mph77%30.01 "HgN/A
3:50 am59 °FPassing clouds.No wind82%30.04 "HgN/A
2:50 am59 °FPassing clouds.5 mph82%30.04 "HgN/A
1:50 am59 °FPassing clouds.6 mph82%30.04 "HgN/A
1:20 am57 °FPassing clouds.3 mph88%30.04 "HgN/A
12:50 am59 °FPassing clouds.No wind88%30.04 "HgN/A
12:20 am59 °FPassing clouds.No wind88%30.07 "HgN/A
11:50 pm
Sat, Jul 22
59 °FPassing clouds.2 mph82%30.07 "HgN/A
11:20 pm59 °FPassing clouds.3 mph88%30.07 "HgN/A
Weather by CustomWeather, © 2017

See weather overviewHow to use our weather pages